Home   Weather   Gonaïves   Past weeks

Flag for Haiti Past Weather in Gonaïves, Haiti — Yesterday and Last 2 Weeks

Now
75 °F

Passing clouds.


Feels Like: 75 °F
Forecast: 75 / 91 °F
Wind: 8 mph from Southeast

Location: Santiago

Current Time: May 27, 2017 at 2:27:06 am

Latest Report: May 27, 2017 at 2:00 am


Visibility: N/A

Pressure: 30.04 "Hg

Humidity: 89%

Dew Point: 72 °F

Location of GonaïvesLocation

Past Weather in Gonaïves — Graph

°F

Gonaïves Temperature Yesterday

Maximum temperature yesterday: 90 °F (at 2:00 pm)
Minimum temperature yesterday: 73 °F (at 4:00 am)
Average temperature yesterday: 81 °F

High & Low Weather Summary for the Past Weeks

 TemperatureHumidityPressure
High91 °F (May 14, 4:00 pm)100% (May 12, 6:00 am)30.07 "Hg (May 12, 6:00 am)
Low68 °F (May 12, 6:00 am)36% (May 26, 6:00 pm)29.86 "Hg (May 12, 4:00 pm)
Average80 °F80%29.98 "Hg
* Reported May 12 1:00 am — May 27 1:00 am, Gonaïves. Weather by CustomWeather, © 2017

Note: Actual official high and low records may vary slightly from our data, if they occured in-between our weather recording intervals... More about our weather records

Advertising

Gonaïves Weather History for the Previous 24 Hours

Scroll right to see more
 ConditionsComfort  
Time TempWeatherWind HumidityBarometerVisibility
1:00 am
Sat, May 27
75 °FPassing clouds.6 mph89%30.04 "HgN/A
12:00 am77 °FPassing clouds.5 mph83%30.04 "HgN/A
11:00 pm
Fri, May 26
77 °FPassing clouds.7 mph83%30.07 "HgN/A
10:00 pm79 °FPassing clouds.7 mph79%30.04 "HgN/A
9:00 pm79 °FPassing clouds.7 mph74%30.04 "HgN/A
8:00 pm81 °FPassing clouds.9 mph74%30.01 "HgN/A
7:00 pm84 °FScattered clouds.12 mph58%29.98 "HgN/A
6:00 pm90 °FScattered clouds.12 mph36%29.98 "HgN/A
5:00 pm90 °FScattered clouds.14 mph43%29.95 "HgN/A
4:00 pm90 °FScattered clouds.12 mph41%29.98 "HgN/A
3:00 pm90 °FPassing clouds.12 mph41%29.98 "HgN/A
2:00 pm90 °FPassing clouds.14 mph52%30.01 "HgN/A
1:00 pm88 °FPassing clouds.14 mph52%30.04 "HgN/A
11:00 am86 °FScattered clouds.15 mph59%30.07 "HgN/A
10:00 am84 °FScattered clouds.14 mph66%30.07 "HgN/A
9:00 am79 °FScattered clouds.10 mph84%30.07 "Hg3 mi
8:00 am75 °FBroken clouds.7 mph89%30.07 "Hg3 mi
7:00 am73 °FBroken clouds.6 mph89%30.04 "Hg3 mi
6:00 am73 °FPassing clouds.5 mph94%30.04 "HgN/A
5:00 am73 °FPassing clouds.6 mph94%30.01 "HgN/A
4:00 am73 °FPassing clouds.7 mph94%30.01 "HgN/A
2:00 am75 °FPassing clouds.9 mph94%30.04 "HgN/A
Weather by CustomWeather, © 2017

See weather overviewHow to use our weather pages